Regional Weather Roundup
Issued by NWS

Home | Current Version | Previous Version | Graphics & Text | Print | Product List | Glossary On
Versions: 1 2 3 4 5 6 7 8 9 10 11 12 13 14 15 16 17 18 19 20 21 22 23 24 25 26 27 28 29 30 31 32 33 34 35 36 37 38 39 40 41 42 43 44 45 46 47 48 49 50
000
ASUS43 KMKX 011510
RWRWI

WISCONSIN REGIONAL WEATHER ROUNDUP
NATIONAL WEATHER SERVICE MILWAUKEE/SULLIVAN WI
1000 AM CDT WED APR 01 2015

NOTE: "FAIR" INDICATES FEW OR NO CLOUDS BELOW 12,000 FEET WITH NO
SIGNIFICANT WEATHER AND/OR OBSTRUCTIONS TO VISIBILITY.

WIZ001-002-006>008-014>016-023>028-011600-
NORTHWEST WISCONSIN

CITY           SKY/WX    TMP DP  RH WIND       PRES   REMARKS
SUPERIOR ARPT  CLOUDY    33  32  94 NE16G22   29.81F WCI  23
ASHLAND        CLOUDY    36  34  92 NE7       29.86F WCI  30
HAYWARD        PTSUNNY   46  31  55 SE14G24   29.82F
SIREN            N/A     51  32  48 S15G22    29.76F
CUMBERLAND     SUNNY     46  32  57 SE16      29.81F
RICE LAKE      SUNNY     48  32  54 SE17      29.84F
CHETEK         SUNNY     48  33  54 E15G25    29.84F
LADYSMITH      CLOUDY    46  32  57 SE12G18   29.90F
EAU CLAIRE     SUNNY     53  32  44 SE17      29.85F
MENOMONIE      MOSUNNY   52  32  47 SE15      29.84F
NEW RICHMOND   MOSUNNY   52  32  46 SE13G20   29.78F
OSCEOLA        PTSUNNY   53  33  47 SE14G20   29.79F
$$

WIZ003>005-009-010-017-018-011600-
NORTH CENTRAL WISCONSIN

CITY           SKY/WX    TMP DP  RH WIND       PRES   REMARKS
MANITOWISH WTR CLOUDY    40  31  72 S8        29.91S WCI  34
ARBOR VITAE    PTSUNNY   39  32  73 S10G17    29.93S WCI  33
WOODRUFF       PTSUNNY   39  32  73 S10G17    29.93S WCI  33
RHINELANDER    CLOUDY    41  31  67 S9        29.96F
EAGLE RIVER    SUNNY     38  31  74 S9        29.95S WCI  32
LAND O LAKES   MOSUNNY   40  31  71 SE8       29.94F WCI  35
PHILLIPS       MOSUNNY   45  31  58 S15G21    29.90F
TOMAHAWK       MOSUNNY   42  33  70 CALM      29.96F
MEDFORD        PTSUNNY   42  32  68 SE14G22   29.93F
MERRILL        PTSUNNY   41  34  75 SE14      29.97F
$$

WIZ029-030-035-036-043>047-011600-
CENTRAL WISCONSIN

CITY           SKY/WX    TMP DP  RH WIND       PRES   REMARKS
WAUSAU         MOSUNNY   43  33  68 SE15      29.97F
MOSINEE        PTSUNNY   43  36  75 SE12      29.99F
MARSHFIELD     MOSUNNY   47  31  53 SE12      29.95F
STEVENS POINT  MOSUNNY   44  32  64 SE12      30.00S
WAUPACA        MOSUNNY   47  35  63 SE8       30.03F
WAUTOMA        MOSUNNY   46  33  60 SE9       30.02F
WISC RAPIDS    MOSUNNY   49  29  46 SE12      29.98F
CAMP DOUGLAS   MOSUNNY   50  34  53 SE10      29.95F
$$

WIZ011>013-019>022-031-037>040-048>050-011600-
NORTHEAST WISCONSIN

CITY           SKY/WX    TMP DP  RH WIND       PRES   REMARKS
ANTIGO         PTSUNNY   38  34  84 S16       30.00S WCI  29
SHAWANO        CLOUDY    37  33  84 NE3       30.07R
OCONTO         CLOUDY    35  31  87 NE3       30.07R
STURGEON BAY   CLOUDY    37  30  75 E7        30.08F WCI  32
GREEN BAY      PTSUNNY   40  34  79 SE3       30.06R
MANITOWOC      PTSUNNY   36  34  92 SE8       30.08R WCI  30
APPLETON       PTSUNNY   43  34  70 SE10      30.04R
CLINTONVILLE   CLOUDY    41  32  70 SE7       30.04R
OSHKOSH        PTSUNNY   46  34  62 E8        30.02F
$$

WIZ032>034-041-042-053>061-011600-
SOUTHWEST WISCONSIN

CITY           SKY/WX    TMP DP  RH WIND       PRES   REMARKS
LA CROSSE      SUNNY     55  33  43 SW7       29.90F
SPARTA         SUNNY     56  30  37 SE13      29.92F
VIROQUA        SUNNY     53  33  47 SE15      29.92F
BOSCOBEL       SUNNY     55  34  45 VRB5      29.95F
PRAIRIE DU CHI SUNNY     52  35  51 CALM      29.92F
PLATTEVILLE    SUNNY     57  36  45 SE10      29.96S
$$

WIZ056-057-062-063-064-067-068-011600-
SOUTH CENTRAL WISCONSIN

CITY           SKY/WX    TMP DP  RH WIND       PRES   REMARKS
REEDSBURG      SUNNY     51  33  49 SE6       29.97F
BARABOO/DELLS  MOSUNNY   52  32  46 SE8       29.98F
LONE ROCK      SUNNY     52  35  52 E12       29.97F
MINERAL POINT  SUNNY     54  34  47 SE13      29.97S
MADISON        MOSUNNY   51  34  52 SE8       30.01S
MIDDLETON      SUNNY     51  34  51 SE8       30.01S
WATERTOWN      MOSUNNY   51  34  52 SE9       30.02S
MONROE         SUNNY     52  39  62 SE7       29.99S
JANESVILLE     SUNNY     54  36  50 SE7       30.01S
$$

WIZ051-052-058>065-066-070>072-011600-
SOUTHEAST WISCONSIN

CITY           SKY/WX    TMP DP  RH WIND       PRES   REMARKS
MILWAUKEE      PTSUNNY   46  32  58 SE9       30.07S
WAUKESHA       MOSUNNY   46  34  61 E9        30.05S
MILWAUKEE/TIMM SUNNY     46  30  53 E7        30.06S
RACINE         MOSUNNY   47  33  58 SE8       30.08R
BURLINGTON     PTSUNNY   50  36  58 SE6       30.04S
KENOSHA        MOSUNNY   49  36  61 SE5       30.06R
FOND DU LAC    CLOUDY    47  33  58 SE13      30.03S
SHEBOYGAN      MOSUNNY   40  33  76 E8        30.07R WCI  34
WEST BEND      CLOUDY    45  32  61 E7        30.05S
JUNEAU         PTSUNNY   48  33  55 SE12      30.04S
$$

LSZ147-162-011600-
LAKE SUPERIOR

STATION/POSITION TIME  TEMP    WIND        PRES    WAVE
                       AIR SEA DIR/SP/G            HT/PER
                 (UTC) (F)     (DEG/KT/KT) (MB)    (FT/S)
DEVILS ISLAND    1500   32      90/ 14/ 15 1012.1F
PORT WING        1400   32      40/ 13/ 16 1011.9F
SAXON HARBOR     1440   35        CALM     1011.9F
$$

LMZ867-665-643>646-011600-
LAKE MICHIGAN

STATION/POSITION TIME  TEMP    WIND        PRES    WAVE
                       AIR SEA DIR/SP/G            HT/PER
                 (UTC) (F)     (DEG/KT/KT) (MB)    (FT/S)
NORTHPORT PIER   1502   31     110/  3/  5 1018.6R
SISTER BAY       1417   45     150/ 10/ 12   N/A
KEWAUNEE LAKESHO 1400   35      40/  4/  6 1017.2R
SHEBOYGAN LAKESH 1500   36     100/  2/  2 1019.2R
PORT WASHINGTON  1400   40     110/  3/  4 1019.0
MILWAUKEE LAKESH 1400   40      40/  1/  1   N/A
KENOSHA   LAKESH 1500   39      60/  3/  3 1018.3R
$$

TC  - TEMPERATURE IN CELSIUS
VSB - VISIBILITY IN STATUTE MILES
WCI - WIND CHILL INDEX
HX  - HEAT INDEX



USA.gov is the U.S. government's official web portal to all federal, state and local government web resources and services.